SES-9

Last updated on Aug. 5, 2020, 5:33 a.m. UTC

1 41380U 16013A   20217.90948410 -.00000362  00000-0  00000-0 0  9996
2 41380   0.0172 274.5714 0002062 204.1325 270.9375  1.00268190 15955
UTC
Height (km)
Latitude
Longitude
Inclination
Orbital Period
UTC large
Height (km)
Speed (km/s)
/
Latitude / Longitude
Inclination (degrees)
Orbital Period (minutes)
Azimuth
Elevation
Range (km)
Doppler Factor
iOS Compass Heading
iOS Angle

Next 30 passes for location: Hong Kong

Rise time Rise Azimuth (degrees) Set time Set Azimuth (degrees) Duration Max altitude (degrees)

No matching passes for this satellites